Time,TemperatureF,DewpointF,PressureIn,WindDirection,WindDirectionDegrees,WindSpeedMPH,WindSpeedGustMPH,Humidity,HourlyPrecipIn,Conditions,Clouds,dailyrainin,SoftwareType,DateUTC
2013-08-05 00:01:00,65.1,58.4,30.12,WSW,250,0.0,0.0,79,0.00,CLR,,0.00,WeatherDisplay:10.37,2013-08-05 04:01:00,
2013-08-05 00:07:00,65.3,58.6,30.12,West,281,0.3,3.5,79,0.00,BKN,,0.00,WeatherDisplay:10.37,2013-08-05 04:07:00,
2013-08-05 00:12:00,65.3,58.6,30.12,WSW,238,1.0,0.0,79,0.00,BKN,,0.00,WeatherDisplay:10.37,2013-08-05 04:12:00,
2013-08-05 00:17:00,65.3,58.6,30.12,SW,217,0.0,0.0,79,0.00,BKN,,0.00,WeatherDisplay:10.37,2013-08-05 04:17:00,
2013-08-05 00:22:00,65.4,58.7,30.12,SW,215,0.0,0.0,79,0.00,BKN,,0.00,WeatherDisplay:10.37,2013-08-05 04:22:00,
2013-08-05 00:27:00,65.5,58.5,30.12,SW,221,0.0,0.0,78,0.00,BKN,,0.00,WeatherDisplay:10.37,2013-08-05 04:27:00,
2013-08-05 00:32:00,65.7,58.7,30.12,SW,221,0.0,0.0,78,0.00,BKN,,0.00,WeatherDisplay:10.37,2013-08-05 04:32:00,
2013-08-05 00:37:00,65.8,58.7,30.12,SW,219,0.0,0.0,78,0.00,BKN,,0.00,WeatherDisplay:10.37,2013-08-05 04:37:00,
2013-08-05 00:42:00,65.9,58.5,30.12,SW,219,0.0,0.0,77,0.00,BKN,,0.00,WeatherDisplay:10.37,2013-08-05 04:42:00,
2013-08-05 00:46:00,66.0,58.9,30.12,SW,219,0.0,0.0,78,0.00,BKN,,0.00,WeatherDisplay:10.37,2013-08-05 04:46:00,
2013-08-05 00:52:00,66.1,59.4,30.13,SW,219,0.0,0.0,79,0.00,BKN,,0.00,WeatherDisplay:10.37,2013-08-05 04:52:00,
2013-08-05 00:57:00,66.0,58.9,30.13,SW,219,0.0,0.0,78,0.00,BKN,,0.00,WeatherDisplay:10.37,2013-08-05 04:57:00,
2013-08-05 01:01:00,65.8,58.7,30.12,SW,219,0.0,0.0,78,0.00,BKN,,0.00,WeatherDisplay:10.37,2013-08-05 05:01:00,
2013-08-05 01:07:00,65.7,58.7,30.12,SW,219,0.0,0.0,78,0.00,BKN,,0.00,WeatherDisplay:10.37,2013-08-05 05:07:00,
2013-08-05 01:11:00,65.5,58.8,30.11,SW,221,0.0,1.2,79,0.00,BKN,,0.00,WeatherDisplay:10.37,2013-08-05 05:11:00,
2013-08-05 01:17:00,65.4,59.1,30.11,SW,221,0.0,0.0,80,0.00,BKN,,0.00,WeatherDisplay:10.37,2013-08-05 05:17:00,
2013-08-05 01:22:00,65.2,59.2,30.12,SW,221,0.0,0.0,81,0.00,BKN,,0.00,WeatherDisplay:10.37,2013-08-05 05:22:00,
2013-08-05 01:26:00,65.0,59.0,30.12,SW,219,0.1,1.2,81,0.00,BKN,,0.00,WeatherDisplay:10.37,2013-08-05 05:26:00,
2013-08-05 01:32:00,64.8,58.8,30.12,SW,219,0.0,0.0,81,0.00,BKN,,0.00,WeatherDisplay:10.37,2013-08-05 05:32:00,
2013-08-05 01:36:00,64.8,58.8,30.12,SW,219,0.0,0.0,81,0.00,BKN,,0.00,WeatherDisplay:10.37,2013-08-05 05:36:00,
2013-08-05 01:42:00,64.9,58.9,30.12,SW,219,0.0,0.0,81,0.00,BKN,,0.00,WeatherDisplay:10.37,2013-08-05 05:42:00,
2013-08-05 01:47:00,64.8,58.8,30.12,SW,219,0.0,0.0,81,0.00,BKN,,0.00,WeatherDisplay:10.37,2013-08-05 05:47:00,
2013-08-05 01:51:00,64.7,58.7,30.12,SW,219,0.0,0.0,81,0.00,BKN,,0.00,WeatherDisplay:10.37,2013-08-05 05:51:00,
2013-08-05 01:57:00,64.7,58.7,30.12,SW,219,0.0,0.0,81,0.00,BKN,,0.00,WeatherDisplay:10.37,2013-08-05 05:57:00,
2013-08-05 02:02:00,64.7,58.7,30.12,SSW,207,0.0,0.0,81,0.00,OVC,,0.00,WeatherDisplay:10.37,2013-08-05 06:02:00,
2013-08-05 02:06:00,64.6,59.3,30.12,WSW,239,0.0,0.0,83,0.00,OVC,,0.00,WeatherDisplay:10.37,2013-08-05 06:06:00,
2013-08-05 02:12:00,64.4,59.1,30.12,SSW,208,0.0,0.0,83,0.00,OVC,,0.00,WeatherDisplay:10.37,2013-08-05 06:12:00,
2013-08-05 02:17:00,64.3,59.0,30.12,SE,136,0.0,0.0,83,0.00,OVC,,0.00,WeatherDisplay:10.37,2013-08-05 06:17:00,
2013-08-05 02:22:00,64.3,58.7,30.12,SE,137,0.0,0.0,82,0.00,OVC,,0.00,WeatherDisplay:10.37,2013-08-05 06:22:00,
2013-08-05 02:26:00,64.3,58.7,30.12,SE,136,0.0,0.0,82,0.00,OVC,,0.00,WeatherDisplay:10.37,2013-08-05 06:26:00,
2013-08-05 02:32:00,64.3,58.7,30.12,SE,136,0.0,0.0,82,0.00,OVC,,0.00,WeatherDisplay:10.37,2013-08-05 06:32:00,
2013-08-05 02:37:00,64.2,58.9,30.12,SE,136,0.0,0.0,83,0.00,OVC,,0.00,WeatherDisplay:10.37,2013-08-05 06:37:00,
2013-08-05 02:42:00,64.1,58.8,30.12,SE,136,0.0,0.0,83,0.00,OVC,,0.00,WeatherDisplay:10.37,2013-08-05 06:42:00,
2013-08-05 02:47:00,64.1,58.8,30.12,SE,139,0.0,0.0,83,0.00,OVC,,0.00,WeatherDisplay:10.37,2013-08-05 06:47:00,
2013-08-05 02:52:00,64.1,58.8,30.12,SE,139,0.0,0.0,83,0.00,OVC,,0.00,WeatherDisplay:10.37,2013-08-05 06:52:00,
2013-08-05 02:57:00,64.0,58.7,30.12,SE,139,0.0,0.0,83,0.00,OVC,,0.00,WeatherDisplay:10.37,2013-08-05 06:57:00,
2013-08-05 03:02:00,64.0,59.1,30.12,SE,136,0.0,0.0,84,0.00,BKN,,0.00,WeatherDisplay:10.37,2013-08-05 07:02:00,
2013-08-05 03:07:00,63.9,58.6,30.12,WSW,243,0.0,0.0,83,0.00,BKN,,0.00,WeatherDisplay:10.37,2013-08-05 07:07:00,
2013-08-05 03:12:00,63.9,59.0,30.12,WSW,243,0.0,0.0,84,0.00,BKN,,0.00,WeatherDisplay:10.37,2013-08-05 07:12:00,
2013-08-05 03:17:00,63.9,58.6,30.12,WSW,243,0.0,0.0,83,0.00,BKN,,0.00,WeatherDisplay:10.37,2013-08-05 07:17:00,
2013-08-05 03:22:00,63.9,58.6,30.12,WSW,243,0.0,0.0,83,0.00,BKN,,0.00,WeatherDisplay:10.37,2013-08-05 07:22:00,
2013-08-05 03:27:00,63.8,58.9,30.12,WSW,243,0.0,0.0,84,0.00,BKN,,0.00,WeatherDisplay:10.37,2013-08-05 07:27:00,
2013-08-05 03:32:00,63.7,58.8,30.12,WSW,243,0.0,0.0,84,0.00,BKN,,0.00,WeatherDisplay:10.37,2013-08-05 07:32:00,
2013-08-05 03:37:00,63.4,58.5,30.12,WSW,243,0.0,0.0,84,0.00,BKN,,0.00,WeatherDisplay:10.37,2013-08-05 07:37:00,
2013-08-05 03:42:00,63.3,58.4,30.12,WSW,243,0.0,0.0,84,0.00,BKN,,0.00,WeatherDisplay:10.37,2013-08-05 07:42:00,
2013-08-05 03:47:00,63.1,58.5,30.12,WSW,243,0.0,0.0,85,0.00,BKN,,0.00,WeatherDisplay:10.37,2013-08-05 07:47:00,
2013-08-05 03:52:00,62.8,58.2,30.12,WSW,243,0.0,0.0,85,0.00,BKN,,0.00,WeatherDisplay:10.37,2013-08-05 07:52:00,
2013-08-05 03:57:00,62.7,58.1,30.12,WSW,243,0.0,0.0,85,0.00,BKN,,0.00,WeatherDisplay:10.37,2013-08-05 07:57:00,
2013-08-05 04:02:00,62.5,57.9,30.12,WSW,243,0.0,0.0,85,0.00,SCT,,0.00,WeatherDisplay:10.37,2013-08-05 08:02:00,
2013-08-05 04:07:00,62.4,57.8,30.12,WSW,243,0.0,0.0,85,0.00,SCT,,0.00,WeatherDisplay:10.37,2013-08-05 08:07:00,
2013-08-05 04:12:00,62.3,58.1,30.12,WSW,243,0.0,0.0,86,0.00,SCT,,0.00,WeatherDisplay:10.37,2013-08-05 08:12:00,
2013-08-05 04:17:00,62.3,58.4,30.12,WSW,243,0.0,0.0,87,0.00,SCT,,0.00,WeatherDisplay:10.37,2013-08-05 08:17:00,
2013-08-05 04:22:00,62.3,58.1,30.12,WSW,243,0.0,0.0,86,0.00,SCT,,0.00,WeatherDisplay:10.37,2013-08-05 08:22:00,
2013-08-05 04:27:00,62.2,58.0,30.12,WSW,243,0.0,0.0,86,0.00,SCT,,0.00,WeatherDisplay:10.37,2013-08-05 08:27:00,
2013-08-05 04:32:00,62.1,58.2,30.12,WSW,243,0.0,0.0,87,0.00,SCT,,0.00,WeatherDisplay:10.37,2013-08-05 08:32:00,
2013-08-05 04:37:00,62.0,57.8,30.11,WSW,243,0.0,0.0,86,0.00,SCT,,0.00,WeatherDisplay:10.37,2013-08-05 08:37:00,
2013-08-05 04:43:00,61.9,58.0,30.11,WSW,243,0.0,0.0,87,0.00,SCT,,0.00,WeatherDisplay:10.37,2013-08-05 08:43:00,
2013-08-05 04:48:00,61.8,57.9,30.11,WSW,243,0.0,0.0,87,0.00,SCT,,0.00,WeatherDisplay:10.37,2013-08-05 08:48:00,
2013-08-05 04:53:00,61.6,57.4,30.11,WSW,243,0.0,0.0,86,0.00,SCT,,0.00,WeatherDisplay:10.37,2013-08-05 08:53:00,
2013-08-05 04:58:00,61.5,57.3,30.11,WSW,245,0.0,1.2,86,0.00,SCT,,0.00,WeatherDisplay:10.37,2013-08-05 08:58:00,
2013-08-05 05:03:00,61.4,57.2,30.11,WSW,244,0.0,0.0,86,0.00,SCT,,0.00,WeatherDisplay:10.37,2013-08-05 09:03:00,
2013-08-05 05:08:00,61.2,57.0,30.11,WSW,245,0.0,0.0,86,0.00,SCT,,0.00,WeatherDisplay:10.37,2013-08-05 09:08:00,
2013-08-05 05:14:00,61.1,57.2,30.11,WSW,245,0.0,0.0,87,0.00,SCT,,0.00,WeatherDisplay:10.37,2013-08-05 09:14:00,
2013-08-05 05:18:00,60.9,57.0,30.11,WSW,245,0.0,0.0,87,0.00,SCT,,0.00,WeatherDisplay:10.37,2013-08-05 09:18:00,
2013-08-05 05:24:00,60.7,56.8,30.11,WSW,244,0.0,0.0,87,0.00,SCT,,0.00,WeatherDisplay:10.37,2013-08-05 09:24:00,
2013-08-05 05:29:00,60.5,56.9,30.11,SW,231,0.0,0.0,88,0.00,SCT,,0.00,WeatherDisplay:10.37,2013-08-05 09:29:00,
2013-08-05 05:34:00,60.3,57.0,30.12,SSW,195,0.0,0.0,89,0.00,SCT,,0.00,WeatherDisplay:10.37,2013-08-05 09:34:00,
2013-08-05 05:39:00,60.1,56.8,30.12,SSW,195,0.0,0.0,89,0.00,SCT,,0.00,WeatherDisplay:10.37,2013-08-05 09:39:00,
2013-08-05 05:43:00,60.0,56.4,30.12,SSW,195,0.0,0.0,88,0.00,SCT,,0.00,WeatherDisplay:10.37,2013-08-05 09:43:00,
2013-08-05 05:48:00,59.9,56.3,30.12,SSW,195,0.0,0.0,88,0.00,SCT,,0.00,WeatherDisplay:10.37,2013-08-05 09:48:00,
2013-08-05 05:53:00,59.9,56.3,30.12,SSW,200,0.0,0.0,88,0.00,SCT,,0.00,WeatherDisplay:10.37,2013-08-05 09:53:00,
2013-08-05 05:58:00,59.9,56.0,30.12,SSW,200,0.0,0.0,87,0.00,SCT,,0.00,WeatherDisplay:10.37,2013-08-05 09:58:00,
2013-08-05 06:04:00,59.8,55.9,30.12,SSW,200,0.0,0.0,87,0.00,BKN,,0.00,WeatherDisplay:10.37,2013-08-05 10:04:00,
2013-08-05 06:09:00,59.8,56.2,30.12,SSW,200,0.0,0.0,88,0.00,BKN,,0.00,WeatherDisplay:10.37,2013-08-05 10:09:00,
2013-08-05 06:14:00,59.6,56.0,30.12,SSW,200,0.0,0.0,88,0.00,BKN,,0.00,WeatherDisplay:10.37,2013-08-05 10:14:00,
2013-08-05 06:18:00,59.5,55.9,30.12,SSW,199,0.0,0.0,88,0.00,BKN,,0.00,WeatherDisplay:10.37,2013-08-05 10:18:00,
2013-08-05 06:23:00,59.4,55.8,30.13,SSW,200,0.0,0.0,88,0.00,BKN,,0.00,WeatherDisplay:10.37,2013-08-05 10:23:00,
2013-08-05 06:28:00,59.2,55.6,30.13,SSW,200,0.0,0.0,88,0.00,BKN,,0.00,WeatherDisplay:10.37,2013-08-05 10:28:00,
2013-08-05 06:34:00,59.1,55.9,30.13,SSW,199,0.0,0.0,89,0.00,BKN,,0.00,WeatherDisplay:10.37,2013-08-05 10:34:00,
2013-08-05 06:39:00,59.1,55.5,30.13,South,174,0.0,0.0,88,0.00,BKN,,0.00,WeatherDisplay:10.37,2013-08-05 10:39:00,
2013-08-05 06:44:00,59.1,55.5,30.13,South,170,0.0,0.0,88,0.00,BKN,,0.00,WeatherDisplay:10.37,2013-08-05 10:44:00,
2013-08-05 06:49:00,59.0,55.5,30.14,South,171,0.0,0.0,88,0.00,BKN,,0.00,WeatherDisplay:10.37,2013-08-05 10:49:00,
2013-08-05 06:54:00,59.1,55.5,30.14,South,169,0.0,0.0,88,0.00,BKN,,0.00,WeatherDisplay:10.37,2013-08-05 10:54:00,
2013-08-05 06:58:00,59.1,55.5,30.14,South,169,0.0,0.0,88,0.00,BKN,,0.00,WeatherDisplay:10.37,2013-08-05 10:58:00,
2013-08-05 07:04:00,59.1,55.5,30.14,South,169,0.0,0.0,88,0.00,SCT,,0.00,WeatherDisplay:10.37,2013-08-05 11:04:00,
2013-08-05 07:09:00,59.1,55.5,30.14,South,169,0.0,0.0,88,0.00,SCT,,0.00,WeatherDisplay:10.37,2013-08-05 11:09:00,
2013-08-05 07:14:00,59.0,55.4,30.14,South,169,0.0,0.0,88,0.00,SCT,,0.00,WeatherDisplay:10.37,2013-08-05 11:14:00,
2013-08-05 07:19:00,59.0,55.4,30.14,South,169,0.0,0.0,88,0.00,SCT,,0.00,WeatherDisplay:10.37,2013-08-05 11:19:00,
2013-08-05 07:24:00,58.9,55.7,30.14,South,169,0.0,0.0,89,0.00,SCT,,0.00,WeatherDisplay:10.37,2013-08-05 11:24:00,
2013-08-05 07:29:00,58.9,55.4,30.14,South,169,0.0,0.0,88,0.00,SCT,,0.00,WeatherDisplay:10.37,2013-08-05 11:29:00,
2013-08-05 07:34:00,59.0,55.4,30.15,South,169,0.0,0.0,88,0.00,SCT,,0.00,WeatherDisplay:10.37,2013-08-05 11:34:00,
2013-08-05 07:39:00,59.2,55.6,30.15,SSE,161,0.0,0.0,88,0.00,SCT,,0.00,WeatherDisplay:10.37,2013-08-05 11:39:00,
2013-08-05 07:44:00,59.4,55.8,30.15,SSE,160,0.0,0.0,88,0.00,SCT,,0.00,WeatherDisplay:10.37,2013-08-05 11:44:00,
2013-08-05 07:49:00,59.6,56.0,30.15,SSE,160,0.0,0.0,88,0.00,SCT,,0.00,WeatherDisplay:10.37,2013-08-05 11:49:00,
2013-08-05 07:55:00,59.8,56.2,30.15,SSE,160,0.0,0.0,88,0.00,SCT,,0.00,WeatherDisplay:10.37,2013-08-05 11:55:00,
2013-08-05 08:00:00,60.0,56.4,30.15,SSE,160,0.0,0.0,88,0.00,SCT,,0.00,WeatherDisplay:10.37,2013-08-05 12:00:00,
2013-08-05 08:05:00,60.2,56.3,30.15,SSE,160,0.0,0.0,87,0.00,SCT,,0.00,WeatherDisplay:10.37,2013-08-05 12:05:00,
2013-08-05 08:10:00,60.5,56.6,30.15,SSE,160,0.0,0.0,87,0.00,SCT,,0.00,WeatherDisplay:10.37,2013-08-05 12:10:00,
2013-08-05 08:15:00,60.7,56.8,30.15,SSE,160,0.0,0.0,87,0.00,FEW,,0.00,WeatherDisplay:10.37,2013-08-05 12:15:00,
2013-08-05 08:20:00,61.1,56.9,30.15,SSE,160,0.0,0.0,86,0.00,FEW,,0.00,WeatherDisplay:10.37,2013-08-05 12:20:00,
2013-08-05 08:25:00,61.5,56.9,30.15,SSE,160,0.0,0.0,85,0.00,FEW,,0.00,WeatherDisplay:10.37,2013-08-05 12:25:00,
2013-08-05 08:30:00,61.8,57.2,30.15,SSE,160,0.0,0.0,85,0.00,FEW,,0.00,WeatherDisplay:10.37,2013-08-05 12:30:00,
2013-08-05 08:37:00,62.1,57.5,30.15,SSE,160,0.0,0.0,85,0.00,FEW,,0.00,WeatherDisplay:10.37,2013-08-05 12:37:00,
2013-08-05 08:42:00,62.5,57.6,30.15,SSE,160,0.0,0.0,84,0.00,FEW,,0.00,WeatherDisplay:10.37,2013-08-05 12:42:00,
2013-08-05 08:46:00,62.8,57.9,30.15,SSE,160,0.0,0.0,84,0.00,FEW,,0.00,WeatherDisplay:10.37,2013-08-05 12:46:00,
2013-08-05 08:52:00,63.2,58.0,30.15,SSE,160,0.0,0.0,83,0.00,FEW,,0.00,WeatherDisplay:10.37,2013-08-05 12:52:00,
2013-08-05 08:57:00,63.7,58.4,30.15,SSE,160,0.0,0.0,83,0.00,FEW,,0.00,WeatherDisplay:10.37,2013-08-05 12:57:00,
2013-08-05 09:01:00,64.2,58.2,30.15,SSE,160,0.0,0.0,81,0.00,OVC,,0.00,WeatherDisplay:10.37,2013-08-05 13:01:00,
2013-08-05 09:07:00,64.7,58.0,30.15,SSE,163,0.0,0.0,79,0.00,OVC,,0.00,WeatherDisplay:10.37,2013-08-05 13:07:00,
2013-08-05 09:12:00,65.3,59.0,30.15,SSE,163,0.0,0.0,80,0.00,OVC,,0.00,WeatherDisplay:10.37,2013-08-05 13:12:00,
2013-08-05 09:17:00,65.6,58.2,30.15,WSW,243,0.0,0.0,77,0.00,OVC,,0.00,WeatherDisplay:10.37,2013-08-05 13:17:00,
2013-08-05 09:22:00,66.0,58.6,30.16,West,262,0.8,1.0,77,0.00,OVC,,0.00,WeatherDisplay:10.37,2013-08-05 13:22:00,
2013-08-05 09:27:00,66.4,59.0,30.16,WSW,245,0.0,0.0,77,0.00,OVC,,0.00,WeatherDisplay:10.37,2013-08-05 13:27:00,
2013-08-05 09:31:00,66.7,58.5,30.15,WSW,245,0.0,1.2,75,0.00,OVC,,0.00,WeatherDisplay:10.37,2013-08-05 13:31:00,
2013-08-05 09:37:00,67.1,58.2,30.15,WSW,244,0.0,0.0,73,0.00,OVC,,0.00,WeatherDisplay:10.37,2013-08-05 13:37:00,
2013-08-05 09:42:00,67.4,58.8,30.15,SW,214,0.0,0.0,74,0.00,OVC,,0.00,WeatherDisplay:10.37,2013-08-05 13:42:00,
2013-08-05 09:47:00,67.8,58.8,30.15,SW,214,0.0,0.0,73,0.00,OVC,,0.00,WeatherDisplay:10.37,2013-08-05 13:47:00,
2013-08-05 09:51:00,68.0,59.0,30.15,SW,214,0.0,0.0,73,0.00,OVC,,0.00,WeatherDisplay:10.37,2013-08-05 13:51:00,
2013-08-05 09:57:00,68.3,59.3,30.15,SW,216,0.0,0.0,73,0.00,OVC,,0.00,WeatherDisplay:10.37,2013-08-05 13:57:00,
2013-08-05 10:02:00,68.5,59.1,30.15,WSW,242,0.6,2.0,72,0.00,OVC,,0.00,WeatherDisplay:10.37,2013-08-05 14:02:00,
2013-08-05 10:07:00,68.3,58.5,30.16,WSW,238,0.0,0.0,71,0.00,OVC,,0.00,WeatherDisplay:10.37,2013-08-05 14:07:00,
2013-08-05 10:11:00,68.7,59.3,30.16,WSW,238,0.0,0.0,72,0.00,OVC,,0.00,WeatherDisplay:10.37,2013-08-05 14:11:00,
2013-08-05 10:17:00,69.2,59.0,30.16,WSW,238,0.1,1.2,70,0.00,OVC,,0.00,WeatherDisplay:10.37,2013-08-05 14:17:00,
2013-08-05 10:22:00,69.6,58.6,30.16,WSW,241,0.5,1.2,68,0.00,OVC,,0.00,WeatherDisplay:10.37,2013-08-05 14:22:00,
2013-08-05 10:27:00,69.7,59.1,30.16,SE,146,0.0,1.2,69,0.00,OVC,,0.00,WeatherDisplay:10.37,2013-08-05 14:27:00,
2013-08-05 10:32:00,70.2,60.0,30.16,SE,146,0.0,0.0,70,0.00,OVC,,0.00,WeatherDisplay:10.37,2013-08-05 14:32:00,
2013-08-05 10:37:00,70.7,59.6,30.16,SSE,158,0.0,0.0,68,0.00,OVC,,0.00,WeatherDisplay:10.37,2013-08-05 14:37:00,
2013-08-05 10:42:00,71.1,59.2,30.16,WSW,253,1.6,3.5,66,0.00,OVC,,0.00,WeatherDisplay:10.37,2013-08-05 14:42:00,
2013-08-05 10:48:00,70.6,58.3,30.16,SSW,210,3.8,6.0,65,0.00,OVC,,0.00,WeatherDisplay:10.37,2013-08-05 14:48:00,
2013-08-05 10:52:00,70.8,59.3,30.16,WSW,238,0.0,1.2,67,0.00,OVC,,0.00,WeatherDisplay:10.37,2013-08-05 14:52:00,
2013-08-05 10:58:00,71.2,58.8,30.16,ESE,114,0.0,1.2,65,0.00,OVC,,0.00,WeatherDisplay:10.37,2013-08-05 14:58:00,
2013-08-05 11:03:00,71.5,58.2,30.16,West,263,0.3,2.3,63,0.00,OVC,,0.00,WeatherDisplay:10.37,2013-08-05 15:03:00,
2013-08-05 11:08:00,71.7,58.9,30.16,South,170,0.0,0.0,64,0.00,OVC,,0.00,WeatherDisplay:10.37,2013-08-05 15:08:00,
2013-08-05 11:13:00,71.6,58.3,30.16,SW,216,0.0,0.0,63,0.00,OVC,,0.00,WeatherDisplay:10.37,2013-08-05 15:13:00,
2013-08-05 11:19:00,71.9,58.6,30.16,WSW,256,0.1,1.2,63,0.00,OVC,,0.00,WeatherDisplay:10.37,2013-08-05 15:19:00,
2013-08-05 11:23:00,72.2,58.9,30.16,WNW,287,0.0,0.0,63,0.00,OVC,,0.00,WeatherDisplay:10.37,2013-08-05 15:23:00,
2013-08-05 11:29:00,72.7,59.4,30.15,WNW,286,0.0,0.0,63,0.00,OVC,,0.00,WeatherDisplay:10.37,2013-08-05 15:29:00,
2013-08-05 11:34:00,72.8,58.6,30.15,NW,312,0.0,0.0,61,0.00,OVC,,0.00,WeatherDisplay:10.37,2013-08-05 15:34:00,
2013-08-05 11:39:00,73.8,59.0,30.15,SE,128,0.0,1.2,60,0.00,OVC,,0.00,WeatherDisplay:10.37,2013-08-05 15:39:00,
2013-08-05 11:44:00,74.6,58.8,30.14,SE,140,0.0,0.0,58,0.00,OVC,,0.00,WeatherDisplay:10.37,2013-08-05 15:44:00,
2013-08-05 11:49:00,74.9,59.1,30.15,SSW,202,0.1,1.2,58,0.00,OVC,,0.00,WeatherDisplay:10.37,2013-08-05 15:49:00,
2013-08-05 11:54:00,75.4,59.6,30.14,WNW,288,0.0,0.0,58,0.00,OVC,,0.00,WeatherDisplay:10.37,2013-08-05 15:54:00,
2013-08-05 11:58:00,75.2,58.9,30.14,WSW,245,0.6,2.3,57,0.00,OVC,,0.00,WeatherDisplay:10.37,2013-08-05 15:58:00,
2013-08-05 12:03:00,75.9,59.6,30.14,SSW,208,1.0,0.0,57,0.00,OVC,,0.00,WeatherDisplay:10.37,2013-08-05 16:03:00,
2013-08-05 12:09:00,75.8,59.5,30.14,ENE,72,0.0,0.0,57,0.00,OVC,,0.00,WeatherDisplay:10.37,2013-08-05 16:09:00,
2013-08-05 12:14:00,76.8,60.0,30.14,West,265,1.0,0.0,56,0.00,OVC,,0.00,WeatherDisplay:10.37,2013-08-05 16:14:00,
2013-08-05 12:19:00,76.9,60.0,30.13,WNW,300,0.5,0.0,56,0.00,BKN,,0.00,WeatherDisplay:10.37,2013-08-05 16:19:00,
2013-08-05 12:24:00,76.9,59.0,30.13,NNW,340,0.4,3.5,54,0.00,BKN,,0.00,WeatherDisplay:10.37,2013-08-05 16:24:00,
2013-08-05 12:28:00,77.2,59.3,30.13,NNW,332,1.0,0.0,54,0.00,BKN,,0.00,WeatherDisplay:10.37,2013-08-05 16:28:00,
2013-08-05 12:34:00,76.6,58.2,30.12,WSW,245,1.5,3.5,53,0.00,BKN,,0.00,WeatherDisplay:10.37,2013-08-05 16:34:00,
2013-08-05 12:38:00,76.3,59.4,30.12,WNW,286,0.3,3.5,56,0.00,BKN,,0.00,WeatherDisplay:10.37,2013-08-05 16:38:00,
2013-08-05 12:44:00,77.4,60.0,30.12,WSW,253,2.3,3.0,55,0.00,BKN,,0.00,WeatherDisplay:10.37,2013-08-05 16:44:00,
2013-08-05 12:49:00,77.2,58.8,30.12,SW,228,5.0,0.0,53,0.00,BKN,,0.00,WeatherDisplay:10.37,2013-08-05 16:49:00,
2013-08-05 12:54:00,77.0,60.6,30.12,SE,134,0.8,3.5,57,0.00,BKN,,0.00,WeatherDisplay:10.37,2013-08-05 16:54:00,
2013-08-05 12:59:00,78.1,60.6,30.11,ESE,114,0.5,3.5,55,0.00,BKN,,0.00,WeatherDisplay:10.37,2013-08-05 16:59:00,
2013-08-05 13:04:00,78.5,60.5,30.11,West,260,0.7,3.0,54,0.00,BKN,,0.00,WeatherDisplay:10.37,2013-08-05 17:04:00,
2013-08-05 13:09:00,78.0,60.5,30.11,NNW,328,0.6,2.3,55,0.00,BKN,,0.00,WeatherDisplay:10.37,2013-08-05 17:09:00,
2013-08-05 13:14:00,79.0,60.9,30.11,SE,132,0.3,1.2,54,0.00,BKN,,0.00,WeatherDisplay:10.37,2013-08-05 17:14:00,
2013-08-05 13:19:00,79.2,61.1,30.10,WNW,294,1.8,3.5,54,0.00,SCT,,0.00,WeatherDisplay:10.37,2013-08-05 17:19:00,
2013-08-05 13:24:00,78.6,60.0,30.10,SSE,160,1.7,3.5,53,0.00,SCT,,0.00,WeatherDisplay:10.37,2013-08-05 17:24:00,
2013-08-05 13:29:00,78.6,61.1,30.10,West,269,1.4,2.3,55,0.00,SCT,,0.00,WeatherDisplay:10.37,2013-08-05 17:29:00,
2013-08-05 13:34:00,77.8,60.3,30.10,WSW,242,1.5,2.3,55,0.00,SCT,,0.00,WeatherDisplay:10.37,2013-08-05 17:34:00,
2013-08-05 13:39:00,77.3,60.4,30.11,West,263,0.1,3.5,56,0.00,SCT,,0.00,WeatherDisplay:10.37,2013-08-05 17:39:00,
2013-08-05 13:45:00,77.0,60.1,30.10,West,259,0.7,2.3,56,0.00,SCT,,0.00,WeatherDisplay:10.37,2013-08-05 17:45:00,
2013-08-05 13:50:00,76.6,61.2,30.11,SSW,197,0.5,2.3,59,0.00,SCT,,0.00,WeatherDisplay:10.37,2013-08-05 17:50:00,
2013-08-05 13:54:00,76.3,60.4,30.11,WSW,256,0.8,3.5,58,0.00,SCT,,0.00,WeatherDisplay:10.37,2013-08-05 17:54:00,
2013-08-05 14:00:00,75.5,60.2,30.10,SSW,211,1.7,3.5,59,0.00,SCT,,0.00,WeatherDisplay:10.37,2013-08-05 18:00:00,
2013-08-05 14:05:00,75.4,61.9,30.10,West,262,0.0,0.0,63,0.00,SCT,,0.00,WeatherDisplay:10.37,2013-08-05 18:05:00,
2013-08-05 14:10:00,76.0,61.1,30.10,NW,326,0.7,2.3,60,0.00,SCT,,0.00,WeatherDisplay:10.37,2013-08-05 18:10:00,
2013-08-05 14:16:00,76.4,61.0,30.10,ESE,120,0.6,2.3,59,0.00,SCT,,0.00,WeatherDisplay:10.37,2013-08-05 18:16:00,
2013-08-05 14:22:00,76.9,61.5,30.09,NNE,28,1.2,2.0,59,0.00,OVC,,0.00,WeatherDisplay:10.37,2013-08-05 18:22:00,
2013-08-05 14:27:00,76.4,61.9,30.09,ENE,62,1.0,0.0,61,0.00,OVC,,0.00,WeatherDisplay:10.37,2013-08-05 18:27:00,
2013-08-05 14:32:00,76.1,62.1,30.09,NNW,327,0.0,2.3,62,0.00,OVC,,0.00,WeatherDisplay:10.37,2013-08-05 18:32:00,
2013-08-05 14:37:00,76.4,62.9,30.09,ESE,109,0.5,2.3,63,0.00,OVC,,0.00,WeatherDisplay:10.37,2013-08-05 18:37:00,
2013-08-05 14:42:00,77.2,63.1,30.09,SSW,193,1.0,0.0,62,0.00,OVC,,0.00,WeatherDisplay:10.37,2013-08-05 18:42:00,
2013-08-05 14:47:00,77.6,63.6,30.08,East,100,1.0,0.0,62,0.00,OVC,,0.00,WeatherDisplay:10.37,2013-08-05 18:47:00,
2013-08-05 14:52:00,78.3,62.8,30.08,SE,146,2.7,3.5,59,0.00,OVC,,0.00,WeatherDisplay:10.37,2013-08-05 18:52:00,
2013-08-05 14:57:00,78.9,62.9,30.08,NW,321,1.5,3.0,58,0.00,OVC,,0.00,WeatherDisplay:10.37,2013-08-05 18:57:00,
2013-08-05 15:02:00,79.3,62.2,30.08,NW,321,1.0,0.0,56,0.00,OVC,,0.00,WeatherDisplay:10.37,2013-08-05 19:02:00,
2013-08-05 15:07:00,78.7,62.7,30.08,East,97,0.6,3.5,58,0.00,OVC,,0.00,WeatherDisplay:10.37,2013-08-05 19:07:00,
2013-08-05 15:12:00,78.9,63.3,30.08,SE,145,0.0,0.0,59,0.00,OVC,,0.00,WeatherDisplay:10.37,2013-08-05 19:12:00,
2013-08-05 15:17:00,79.2,63.6,30.08,West,259,0.0,1.2,59,0.00,BKN,,0.00,WeatherDisplay:10.37,2013-08-05 19:17:00,
2013-08-05 15:22:00,79.4,63.8,30.08,WNW,300,0.1,1.2,59,0.00,BKN,,0.00,WeatherDisplay:10.37,2013-08-05 19:22:00,
2013-08-05 15:27:00,79.4,63.8,30.08,West,260,1.0,0.0,59,0.00,BKN,,0.00,WeatherDisplay:10.37,2013-08-05 19:27:00,
2013-08-05 15:32:00,79.5,63.9,30.07,SW,222,0.6,1.2,59,0.00,BKN,,0.00,WeatherDisplay:10.37,2013-08-05 19:32:00,
2013-08-05 15:37:00,79.7,63.6,30.07,SSW,201,0.0,0.0,58,0.00,BKN,,0.00,WeatherDisplay:10.37,2013-08-05 19:37:00,
2013-08-05 15:42:00,79.5,62.9,30.07,East,89,0.2,1.2,57,0.00,BKN,,0.00,WeatherDisplay:10.37,2013-08-05 19:42:00,
2013-08-05 15:48:00,79.0,63.0,30.07,WSW,255,0.1,3.5,58,0.00,BKN,,0.00,WeatherDisplay:10.37,2013-08-05 19:48:00,
2013-08-05 15:53:00,78.5,63.5,30.07,WNW,301,0.0,1.2,60,0.00,BKN,,0.00,WeatherDisplay:10.37,2013-08-05 19:53:00,
2013-08-05 15:58:00,78.5,63.5,30.07,East,79,0.6,2.3,60,0.00,BKN,,0.00,WeatherDisplay:10.37,2013-08-05 19:58:00,
2013-08-05 16:03:00,78.6,63.6,30.07,WSW,258,0.1,1.0,60,0.00,BKN,,0.00,WeatherDisplay:10.37,2013-08-05 20:03:00,
2013-08-05 16:09:00,78.7,63.1,30.07,North,4,1.0,0.0,59,0.00,BKN,,0.00,WeatherDisplay:10.37,2013-08-05 20:09:00,
2013-08-05 16:14:00,78.8,63.7,30.07,ESE,122,0.6,1.2,60,0.00,BKN,,0.00,WeatherDisplay:10.37,2013-08-05 20:14:00,
2013-08-05 16:19:00,79.3,64.2,30.07,SSW,197,0.5,1.2,60,0.00,BKN,,0.00,WeatherDisplay:10.37,2013-08-05 20:19:00,
2013-08-05 16:24:00,79.7,64.6,30.07,ESE,122,1.2,3.0,60,0.00,BKN,,0.00,WeatherDisplay:10.37,2013-08-05 20:24:00,
2013-08-05 16:29:00,79.8,63.2,30.06,ESE,122,1.3,4.0,57,0.00,BKN,,0.00,WeatherDisplay:10.37,2013-08-05 20:29:00,
2013-08-05 16:34:00,79.6,64.5,30.06,ENE,57,1.6,2.3,60,0.00,BKN,,0.00,WeatherDisplay:10.37,2013-08-05 20:34:00,
2013-08-05 16:39:00,80.3,64.7,30.06,SW,226,1.0,3.5,59,0.00,BKN,,0.00,WeatherDisplay:10.37,2013-08-05 20:39:00,
2013-08-05 16:45:00,80.3,64.7,30.06,SE,124,1.1,4.6,59,0.00,BKN,,0.00,WeatherDisplay:10.37,2013-08-05 20:45:00,
2013-08-05 16:50:00,80.1,64.5,30.06,North,9,1.5,3.5,59,0.00,BKN,,0.00,WeatherDisplay:10.37,2013-08-05 20:50:00,
2013-08-05 16:55:00,80.4,64.3,30.06,ENE,57,0.4,3.5,58,0.00,BKN,,0.00,WeatherDisplay:10.37,2013-08-05 20:55:00,
2013-08-05 17:00:00,80.6,64.9,30.06,ESE,114,0.2,1.2,59,0.00,BKN,,0.00,WeatherDisplay:10.37,2013-08-05 21:00:00,
2013-08-05 17:05:00,80.0,64.4,30.05,West,273,1.1,3.5,59,0.00,BKN,,0.00,WeatherDisplay:10.37,2013-08-05 21:05:00,
2013-08-05 17:10:00,79.9,63.8,30.05,SSW,204,2.2,3.5,58,0.00,BKN,,0.00,WeatherDisplay:10.37,2013-08-05 21:10:00,
2013-08-05 17:15:00,79.8,64.7,30.06,NW,315,1.6,3.5,60,0.00,BKN,,0.00,WeatherDisplay:10.37,2013-08-05 21:15:00,
2013-08-05 17:20:00,80.0,64.9,30.06,SE,127,1.3,3.5,60,0.00,BKN,,0.00,WeatherDisplay:10.37,2013-08-05 21:20:00,
2013-08-05 17:25:00,80.2,65.5,30.06,SW,234,0.3,1.2,61,0.00,BKN,,0.00,WeatherDisplay:10.37,2013-08-05 21:25:00,
2013-08-05 17:30:00,80.5,64.4,30.06,West,280,1.0,2.3,58,0.00,BKN,,0.00,WeatherDisplay:10.37,2013-08-05 21:30:00,
2013-08-05 17:35:00,80.0,63.9,30.06,SSW,208,1.2,2.3,58,0.00,BKN,,0.00,WeatherDisplay:10.37,2013-08-05 21:35:00,
2013-08-05 17:40:00,79.4,64.3,30.06,ESE,117,1.3,3.5,60,0.00,BKN,,0.00,WeatherDisplay:10.37,2013-08-05 21:40:00,
2013-08-05 17:45:00,79.9,65.2,30.06,WNW,302,0.4,1.2,61,0.00,BKN,,0.00,WeatherDisplay:10.37,2013-08-05 21:45:00,
2013-08-05 17:50:00,80.7,65.0,30.06,ESE,110,0.4,1.2,59,0.00,BKN,,0.00,WeatherDisplay:10.37,2013-08-05 21:50:00,
2013-08-05 17:55:00,80.6,64.9,30.06,WSW,246,0.2,1.2,59,0.00,BKN,,0.00,WeatherDisplay:10.37,2013-08-05 21:55:00,
2013-08-05 18:00:00,80.1,64.5,30.06,SW,231,1.0,1.2,59,0.00,SCT,,0.00,WeatherDisplay:10.37,2013-08-05 22:00:00,
2013-08-05 18:05:00,78.8,64.2,30.06,WNW,301,0.6,3.0,61,0.00,SCT,,0.00,WeatherDisplay:10.37,2013-08-05 22:05:00,
2013-08-05 18:10:00,78.9,64.8,30.06,West,269,0.6,1.2,62,0.00,SCT,,0.00,WeatherDisplay:10.37,2013-08-05 22:10:00,
2013-08-05 18:15:00,79.5,65.3,30.05,SW,228,1.0,2.3,62,0.00,SCT,,0.00,WeatherDisplay:10.37,2013-08-05 22:15:00,
2013-08-05 18:20:00,79.4,65.7,30.05,ESE,109,0.0,1.2,63,0.00,SCT,,0.00,WeatherDisplay:10.37,2013-08-05 22:20:00,
2013-08-05 18:26:00,78.7,64.6,30.05,West,278,1.2,2.3,62,0.00,SCT,,0.00,WeatherDisplay:10.37,2013-08-05 22:26:00,
2013-08-05 18:31:00,77.5,64.8,30.05,SSW,210,0.7,3.5,65,0.00,SCT,,0.00,WeatherDisplay:10.37,2013-08-05 22:31:00,
2013-08-05 18:36:00,77.0,64.8,30.06,WNW,300,0.0,1.2,66,0.00,SCT,,0.00,WeatherDisplay:10.37,2013-08-05 22:36:00,
2013-08-05 18:42:00,76.7,64.9,30.06,SW,226,0.2,1.2,67,0.00,SCT,,0.00,WeatherDisplay:10.37,2013-08-05 22:42:00,
2013-08-05 18:47:00,76.6,64.8,30.06,West,280,0.0,0.0,67,0.00,SCT,,0.00,WeatherDisplay:10.37,2013-08-05 22:47:00,
2013-08-05 18:52:00,76.5,64.3,30.06,WSW,256,0.0,0.0,66,0.00,SCT,,0.00,WeatherDisplay:10.37,2013-08-05 22:52:00,
2013-08-05 18:57:00,76.3,64.5,30.06,SW,227,0.0,0.0,67,0.00,SCT,,0.00,WeatherDisplay:10.37,2013-08-05 22:57:00,
2013-08-05 19:02:00,76.2,64.4,30.06,SSW,212,0.0,0.0,67,0.00,SCT,,0.00,WeatherDisplay:10.37,2013-08-05 23:02:00,
2013-08-05 19:07:00,76.6,64.8,30.06,SSW,212,0.0,0.0,67,0.00,SCT,,0.00,WeatherDisplay:10.37,2013-08-05 23:07:00,
2013-08-05 19:12:00,76.3,65.0,30.06,WSW,258,0.8,3.0,68,0.00,SCT,,0.00,WeatherDisplay:10.37,2013-08-05 23:12:00,
2013-08-05 19:17:00,75.5,64.6,30.06,West,264,0.3,1.2,69,0.00,BKN,,0.00,WeatherDisplay:10.37,2013-08-05 23:17:00,
2013-08-05 19:22:00,75.3,64.8,30.06,West,264,0.0,0.0,70,0.00,BKN,,0.00,WeatherDisplay:10.37,2013-08-05 23:22:00,
2013-08-05 19:28:00,75.5,65.0,30.07,West,264,0.0,0.0,70,0.00,BKN,,0.00,WeatherDisplay:10.37,2013-08-05 23:28:00,
2013-08-05 19:33:00,75.6,65.1,30.06,West,264,0.0,0.0,70,0.00,BKN,,0.00,WeatherDisplay:10.37,2013-08-05 23:33:00,
2013-08-05 19:39:00,75.3,64.8,30.06,West,263,0.0,0.0,70,0.00,BKN,,0.00,WeatherDisplay:10.37,2013-08-05 23:39:00,
2013-08-05 19:44:00,74.7,64.7,30.07,West,266,0.0,0.0,71,0.00,BKN,,0.00,WeatherDisplay:10.37,2013-08-05 23:44:00,
2013-08-05 19:49:00,74.3,65.1,30.06,West,266,0.0,0.0,73,0.00,BKN,,0.00,WeatherDisplay:10.37,2013-08-05 23:49:00,
2013-08-05 19:53:00,74.2,65.4,30.06,WSW,249,0.0,0.0,74,0.00,BKN,,0.00,WeatherDisplay:10.37,2013-08-05 23:53:00,
2013-08-05 19:59:00,73.7,65.3,30.06,WNW,287,0.5,1.2,75,0.00,BKN,,0.00,WeatherDisplay:10.37,2013-08-05 23:59:00,
2013-08-05 20:04:00,73.4,65.0,30.06,WNW,288,0.0,1.2,75,0.00,BKN,,0.00,WeatherDisplay:10.37,2013-08-06 00:04:00,
2013-08-05 20:09:00,73.3,65.3,30.06,WNW,288,0.0,0.0,76,0.00,BKN,,0.00,WeatherDisplay:10.37,2013-08-06 00:09:00,
2013-08-05 20:14:00,73.0,65.0,30.06,WNW,288,0.0,0.0,76,0.00,BKN,,0.00,WeatherDisplay:10.37,2013-08-06 00:14:00,
2013-08-05 20:19:00,72.7,64.7,30.06,WNW,288,0.0,0.0,76,0.00,BKN,,0.00,WeatherDisplay:10.37,2013-08-06 00:19:00,
2013-08-05 20:24:00,72.5,64.9,30.06,WNW,288,0.0,1.0,77,0.00,BKN,,0.00,WeatherDisplay:10.37,2013-08-06 00:24:00,
2013-08-05 20:29:00,72.5,64.5,30.06,WNW,300,0.1,1.0,76,0.00,BKN,,0.00,WeatherDisplay:10.37,2013-08-06 00:29:00,
2013-08-05 20:34:00,72.3,63.9,30.06,WNW,298,0.0,0.0,75,0.00,BKN,,0.00,WeatherDisplay:10.37,2013-08-06 00:34:00,
2013-08-05 20:39:00,72.2,64.2,30.07,WNW,298,0.0,0.0,76,0.00,BKN,,0.00,WeatherDisplay:10.37,2013-08-06 00:39:00,
2013-08-05 20:44:00,72.1,63.7,30.07,WNW,298,0.0,0.0,75,0.00,BKN,,0.00,WeatherDisplay:10.37,2013-08-06 00:44:00,
2013-08-05 20:49:00,72.0,64.4,30.07,WNW,298,0.0,0.0,77,0.00,BKN,,0.00,WeatherDisplay:10.37,2013-08-06 00:49:00,
2013-08-05 20:55:00,71.7,64.1,30.07,WNW,298,0.0,0.0,77,0.00,BKN,,0.00,WeatherDisplay:10.37,2013-08-06 00:55:00,
2013-08-05 21:00:00,71.5,63.9,30.07,WNW,298,0.0,0.0,77,0.00,BKN,,0.00,WeatherDisplay:10.37,2013-08-06 01:00:00,
2013-08-05 21:05:00,71.5,63.9,30.08,WNW,298,0.0,0.0,77,0.00,BKN,,0.00,WeatherDisplay:10.37,2013-08-06 01:05:00,
2013-08-05 21:10:00,71.5,64.6,30.08,WNW,298,0.0,0.0,79,0.00,BKN,,0.00,WeatherDisplay:10.37,2013-08-06 01:10:00,
2013-08-05 21:15:00,71.4,64.2,30.08,WNW,298,0.0,0.0,78,0.00,BKN,,0.00,WeatherDisplay:10.37,2013-08-06 01:15:00,
2013-08-05 21:20:00,71.2,63.6,30.08,WNW,298,0.0,0.0,77,0.00,OVC,,0.00,WeatherDisplay:10.37,2013-08-06 01:20:00,
2013-08-05 21:25:00,71.2,64.4,30.08,WNW,298,0.0,0.0,79,0.00,OVC,,0.00,WeatherDisplay:10.37,2013-08-06 01:25:00,
2013-08-05 21:30:00,71.1,64.3,30.08,WNW,298,0.0,0.0,79,0.00,OVC,,0.00,WeatherDisplay:10.37,2013-08-06 01:30:00,
2013-08-05 21:36:00,70.9,64.4,30.08,WNW,297,0.0,0.0,80,0.00,OVC,,0.00,WeatherDisplay:10.37,2013-08-06 01:36:00,
2013-08-05 21:41:00,70.8,64.3,30.07,WNW,298,0.0,0.0,80,0.00,OVC,,0.00,WeatherDisplay:10.37,2013-08-06 01:41:00,
2013-08-05 21:46:00,70.6,64.5,30.07,WNW,298,0.0,0.0,81,0.00,OVC,,0.00,WeatherDisplay:10.37,2013-08-06 01:46:00,
2013-08-05 21:51:00,70.4,64.6,30.07,WNW,298,0.0,0.0,82,0.00,OVC,,0.00,WeatherDisplay:10.37,2013-08-06 01:51:00,
2013-08-05 21:56:00,70.1,64.7,30.07,WNW,298,0.0,0.0,83,0.00,OVC,,0.00,WeatherDisplay:10.37,2013-08-06 01:56:00,
2013-08-05 22:01:00,69.9,64.2,30.08,WNW,298,0.0,0.0,82,0.00,OVC,,0.00,WeatherDisplay:10.37,2013-08-06 02:01:00,
2013-08-05 22:06:00,69.9,64.2,30.07,WNW,297,0.0,0.0,82,0.00,OVC,,0.00,WeatherDisplay:10.37,2013-08-06 02:06:00,
2013-08-05 22:12:00,69.9,64.2,30.07,WNW,298,0.0,0.0,82,0.00,OVC,,0.00,WeatherDisplay:10.37,2013-08-06 02:12:00,
2013-08-05 22:17:00,69.9,64.2,30.07,WNW,298,0.0,0.0,82,0.00,OVC,,0.00,WeatherDisplay:10.37,2013-08-06 02:17:00,
2013-08-05 22:22:00,69.8,64.1,30.07,WNW,297,0.0,0.0,82,0.00,OVC,,0.00,WeatherDisplay:10.37,2013-08-06 02:22:00,
2013-08-05 22:28:00,69.6,63.9,30.07,WNW,298,0.0,0.0,82,0.00,OVC,,0.00,WeatherDisplay:10.37,2013-08-06 02:28:00,
2013-08-05 22:33:00,69.3,63.9,30.06,WNW,298,0.0,0.0,83,0.00,OVC,,0.00,WeatherDisplay:10.37,2013-08-06 02:33:00,
2013-08-05 22:38:00,69.1,64.1,30.06,WNW,298,0.0,0.0,84,0.00,OVC,,0.00,WeatherDisplay:10.37,2013-08-06 02:38:00,
2013-08-05 22:43:00,68.8,63.8,30.06,WNW,298,0.0,0.0,84,0.00,OVC,,0.00,WeatherDisplay:10.37,2013-08-06 02:43:00,
2013-08-05 22:48:00,68.6,63.6,30.06,WNW,298,0.0,0.0,84,0.00,OVC,,0.00,WeatherDisplay:10.37,2013-08-06 02:48:00,
2013-08-05 22:53:00,68.5,63.8,30.06,WNW,298,0.0,0.0,85,0.00,OVC,,0.00,WeatherDisplay:10.37,2013-08-06 02:53:00,
2013-08-05 22:59:00,68.4,63.7,30.06,WNW,298,0.0,0.0,85,0.00,OVC,,0.00,WeatherDisplay:10.37,2013-08-06 02:59:00,
2013-08-05 23:04:00,68.2,63.5,30.06,WNW,297,0.0,0.0,85,0.00,OVC,,0.00,WeatherDisplay:10.37,2013-08-06 03:04:00,
2013-08-05 23:09:00,68.1,63.4,30.06,NW,314,0.0,0.0,85,0.00,OVC,,0.00,WeatherDisplay:10.37,2013-08-06 03:09:00,
2013-08-05 23:14:00,68.1,63.1,30.05,NW,315,0.0,0.0,84,0.00,OVC,,0.00,WeatherDisplay:10.37,2013-08-06 03:14:00,
2013-08-05 23:19:00,68.2,63.2,30.06,NW,315,0.0,0.0,84,0.00,BKN,,0.00,WeatherDisplay:10.37,2013-08-06 03:19:00,
2013-08-05 23:24:00,68.3,63.3,30.05,NW,315,0.0,0.0,84,0.00,BKN,,0.00,WeatherDisplay:10.37,2013-08-06 03:24:00,
2013-08-05 23:29:00,68.3,63.3,30.05,NW,314,0.0,0.0,84,0.00,BKN,,0.00,WeatherDisplay:10.37,2013-08-06 03:29:00,
2013-08-05 23:34:00,68.5,63.1,30.05,NW,305,0.2,1.0,83,0.00,BKN,,0.00,WeatherDisplay:10.37,2013-08-06 03:34:00,
2013-08-05 23:40:00,68.8,63.4,30.06,NW,304,0.0,0.0,83,0.00,BKN,,0.00,WeatherDisplay:10.37,2013-08-06 03:40:00,
2013-08-05 23:45:00,69.0,63.3,30.06,NW,305,0.0,0.0,82,0.00,BKN,,0.00,WeatherDisplay:10.37,2013-08-06 03:45:00,
2013-08-05 23:50:00,69.2,63.5,30.06,NW,304,0.0,0.0,82,0.00,BKN,,0.00,WeatherDisplay:10.37,2013-08-06 03:50:00,
2013-08-05 23:55:00,69.2,63.5,30.06,NW,305,0.0,0.0,82,0.00,BKN,,0.00,WeatherDisplay:10.37,2013-08-06 03:55:00,